Location: Duac?
(36.9744°N, 30.6500°E)
Time: 23:52:16
(UTC+00:00)

Cosmos 2056 Rocket - Pass Details

Date: 05 August 2024
Orbit: 740 x 797 km, 74.0° (Epoch: 18 September)

Event Time Altitude Azimuth Distance (km) Brightness Sun altitude
Rises 18:40:48 0° 208° (SSW) 3,221 6.6 -18.2°
Reaches altitude 10° 18:43:14 10° 213° (SSW) 2,290 5.9 -18.6°
Maximum altitude 18:48:18 54° 291° (WNW) 918 4.2 -19.4°
Drops below altitude 10° 18:53:20 10° 8° (N) 2,271 6.4 -20.1°
Sets 18:55:44 0° 13° (NNE) 3,193 7.1 -20.5°
